Regional Weather Roundup
Issued by NWS

Home | Current Version | Previous Version | Graphics & Text | Print | Product List | Glossary On
Versions: 1 2 3 4 5 6 7 8 9 10 11 12 13 14 15 16 17 18 19 20 21 22 23 24 25 26 27 28 29 30 31 32 33 34 35 36 37 38 39 40 41 42 43 44 45 46 47 48 49 50
000
ASUS45 KABQ 301901
RWRNM
NEW MEXICO REGIONAL WEATHER ROUNDUP
NATIONAL WEATHER SERVICE ALBUQUERQUE NM
100 PM MDT SAT MAY 30 2015

NOTE: "FAIR" MEANS FEW OR NO CLOUDS BELOW 12,000 FEET AGL WITH NO
       SIGNIFICANT WEATHER OR OBSTRUCTIONS TO VISION.

      THIS PRODUCT IS RELEASED AS TWO VERSIONS.  ONE VERSION NEAR
      THE TOP OF THE HOUR CONTAINING PRELIMINARY DATA FROM ALBUQUERQUE
      AND OTHER STATIONS.  A FINAL VERSION WITH ADDITIONAL DATA IS
      ISSUED ABOUT 10 MINUTES AFTER THE HOUR.

NMZ501-503-504-510>518-302000-
NORTHWEST PLATEAU/NORTHCENTRAL MOUNTAINS

CITY           SKY/WX    TMP DP  RH WIND       PRES   REMARKS
FARMINGTON     SUNNY     77  28  16 MISG      30.23F
LOS ALAMOS     CLOUDY    64  42  43 S7        30.37F
SANTA FE       SUNNY     70  41  34 SE10G17   30.32F
TAOS           MOSUNNY   64  37  36 W5        30.35F
ANGEL FIRE     FAIR      61  36  39 W14       30.39F

$$
NMZ402-403-502-505>509-302000-
WESTCENTRAL MOUNTAINS/SOUTHWEST MOUNTAINS

CITY           SKY/WX    TMP DP  RH WIND       PRES   REMARKS
GALLUP         SUNNY     76  28  17 N8        30.29F
GRANTS         LGT RAIN  71  37  28 SE9       30.32F
SILVER CITY      N/A     81  39  22 SE15      30.24F

$$
NMZ407-409-411-412-302000-
SOUTHERN DESERTS

CITY           SKY/WX    TMP DP  RH WIND       PRES   REMARKS
LORDSBURG      FAIR      88  43  20 E16G22    30.14F
DEMING         SUNNY     85  47  26 E14       30.16F
HOLLOMAN AFB   MOSUNNY   83  47  27 W6        30.15F
ALAMOGORDO     SUNNY     84  45  24 S6        30.17F
T OR C         SUNNY     80  42  25 E7        30.20F

$$
NMZ519>523-302000-
CENTRAL VALLEYS/CENTRAL HIGHLANDS

CITY           SKY/WX    TMP DP  RH WIND       PRES   REMARKS
ALBUQUERQUE    MOSUNNY   75  43  31 S8        30.27F
DOUBLE EAGLE   MOSUNNY   72  45  37 SE5       30.31F
MORIARTY ARPT  FAIR      69  44  39 S6        30.34F
CLINES CORNERS PTSUNNY   63  44  50 VRB6      30.35F
BELEN          FAIR      75  39  27 N6        30.26F
SOCORRO        NOT AVBL

$$
NMZ524>526-539-540-302000-
SOUTHCENTRAL MOUNTAINS

CITY           SKY/WX    TMP DP  RH WIND       PRES   REMARKS
RUIDOSO        NOT AVBL

$$
NMZ527>531-302000-
NORTHEAST HIGHLANDS/NORTHEAST PLAINS

CITY           SKY/WX    TMP DP  RH WIND       PRES   REMARKS
LAS VEGAS      SUNNY     65  45  48 S15G26    30.34F
RATON          MOSUNNY   68  46  45 S10G17    30.29F
CLAYTON        CLOUDY    62  50  64 NE6       30.30F

$$
NMZ532>537-302000-
EASTCENTRAL PLAINS

CITY           SKY/WX    TMP DP  RH WIND       PRES   REMARKS
TUCUMCARI      MOSUNNY   66  52  60 E7        30.27F
CANNON AFB     MOSUNNY   66  54  64 NE8       30.26F
CLOVIS AIRPORT SUNNY     66  54  63 NE14      30.25F

$$
NMZ028-029-538-302000-
SOUTHEAST PLAINS

CITY           SKY/WX    TMP DP  RH WIND       PRES   REMARKS
ROSWELL        PTSUNNY   71  54  54 SE6       30.22F
ARTESIA        MOSUNNY   72  55  56 N10       30.23F
CARLSBAD       SUNNY     78  55  44 N10       30.19F
HOBBS          PTSUNNY   70  57  64 N10       30.25S


$$



USA.gov is the U.S. government's official web portal to all federal, state and local government web resources and services.